GFSNW_con_lsi_000.txt.gz
Lid_Strength_Index
4 5 4 4 5 5 5 4 8 0 0 5 5 6 5 6 5 5 6 5 6 6 6 7 7 7 6 4 4 6 5 6 8 8 5 5 5 6 7 9 11 9 9 9
4 4 5 4 5 5 5 5 5 -0 1 7 7 5 6 5 5 6 7 6 5 5 6 7 6 6 4 4 5 5 5 7 9 9 7 6 7 6 6 6 7 9 11 9
3 3 5 4 5 5 5 4 6 4 3 4 6 6 6 6 5 5 6 6 5 6 6 5 6 6 5 4 4 4 4 6 8 10 8 7 8 7 6 7 9 9 9 8
2 2 3 4 5 6 5 3 6 5 6 6 6 6 6 7 7 5 5 5 6 6 7 6 7 6 6 5 7 5 5 8 7 7 6 6 7 7 7 7 7 9 8 8
2 2 2 5 5 6 5 6 6 3 4 6 6 8 7 7 7 6 6 7 6 6 7 7 7 6 6 6 5 5 5 8 7 8 7 7 8 7 7 7 7 7 7 7
2 2 2 2 3 6 5 5 5 6 8 6 6 7 7 7 6 6 5 6 6 6 6 5 5 5 5 5 6 6 6 8 9 9 7 8 9 7 7 7 6 6 8 6
3 2 2 2 2 3 6 5 5 7 8 5 7 7 7 7 6 7 5 5 6 5 3 4 4 4 5 5 5 5 7 7 7 9 9 13 7 5 5 7 6 5 5 5
4 3 2 2 2 3 4 5 5 6 9 8 8 8 8 7 5 6 6 5 4 3 4 7 8 8 7 6 6 6 6 7 9 11 11 8 8 7 7 7 7 5 5 4
4 3 2 2 3 3 3 4 5 5 7 9 8 8 8 7 7 6 5 3 3 4 5 7 10 10 8 9 8 6 6 6 8 9 11 12 7 5 4 5 9 4 5 4
4 4 3 2 3 3 3 4 4 5 7 6 6 8 8 6 7 7 5 6 5 4 6 8 9 9 7 10 10 9 9 8 9 9 10 8 6 5 4 10 8 4 4 4
3 3 3 3 2 3 4 4 3 6 7 6 7 7 8 7 6 8 6 6 6 6 8 8 8 9 8 8 8 9 9 10 9 9 10 12 5 5 7 6 4 4 3 3
2 2 2 3 3 3 3 5 3 3 6 6 4 5 5 6 6 6 6 6 7 5 7 6 7 8 7 8 10 6 9 8 9 8 8 5 4 5 4 3 4 4 4 4
2 2 2 1 2 2 3 4 3 4 6 6 6 6 4 3 5 5 7 5 4 5 4 5 6 9 7 9 8 8 7 6 7 8 6 5 5 4 3 3 4 3 3 3
2 2 2 1 1 1 2 3 3 4 5 8 7 4 6 4 3 5 5 5 4 4 4 5 6 7 5 7 7 8 6 6 7 7 6 5 4 4 3 3 3 3 3 3
2 2 2 1 1 1 2 1 1 2 5 7 6 5 4 4 4 4 4 5 5 5 6 6 7 4 6 5 6 7 5 6 7 8 5 5 5 3 3 3 3 3 3 3
2 2 2 2 1 2 2 5 2 0 2 5 7 4 5 3 3 4 5 4 5 5 6 6 5 5 5 7 8 5 5 4 4 5 4 4 3 3 2 3 3 3 3 2
2 2 2 2 1 2 4 4 2 2 2 5 7 6 4 4 3 4 4 4 5 5 5 6 6 5 6 8 9 6 5 4 3 4 5 5 5 5 4 3 2 2 2 2
2 2 2 1 1 2 3 2 2 2 3 4 7 6 6 4 4 5 2 5 5 5 6 5 6 5 6 9 5 4 4 4 4 4 4 4 3 3 5 4 3 3 3 2
2 2 2 1 2 4 3 2 2 1 3 6 6 7 8 4 4 4 4 3 6 4 7 6 5 6 8 6 5 4 4 4 3 3 3 3 3 3 3 2 3 3 3 2
1 1 3 5 3 2 1 2 4 4 4 4 7 5 7 5 4 6 6 5 5 8 6 3 6 7 4 3 3 3 3 3 3 4 5 4 4 3 3 3 2 2 2 2
1 4 4 1 1 1 3 6 6 5 7 5 5 5 6 3 6 5 4 5 5 8 7 7 7 7 5 4 4 3 3 3 3 3 3 3 3 3 3 3 2 2 2 2
1 1 0 -0 2 4 7 7 6 7 7 6 6 5 3 4 2 5 5 7 6 10 5 8 9 7 5 4 4 3 3 2 3 2 2 2 2 3 3 2 2 2 2 2
1 3 4 4 7 10 11 11 9 8 6 5 5 7 4 4 4 5 6 9 8 5 8 9 6 6 5 4 3 3 2 2 2 3 2 2 2 2 2 2 2 2 2 2
5 7 11 8 10 8 7 6 5 5 4 5 5 5 5 4 6 5 10 6 6 10 11 10 6 6 5 4 3 3 4 3 3 3 3 3 2 2 2 2 2 2 3 2
6 6 10 8 4 3 3 3 4 4 3 4 5 4 5 5 7 6 7 10 12 10 9 7 6 5 4 4 4 4 3 3 3 3 3 3 3 3 3 2 2 2 2 2
5 6 7 4 6 5 5 5 5 3 3 3 3 6 8 9 7 10 10 10 11 8 8 7 7 6 5 5 4 3 3 4 4 3 3 3 3 3 3 2 2 2 2 2
6 6 4 4 4 4 4 4 4 2 4 7 6 10 10 6 9 10 7 9 9 8 7 6 6 6 5 4 4 4 4 3 3 2 2 2 2 2 2 3 2 2 2 2

GFSNW_con_lsi_003.txt.gz
Lid_Strength_Index
3 3 3 4 6 6 5 4 6 0 -0 5 5 6 5 6 5 4 5 5 6 6 6 7 7 7 6 4 4 6 5 6 8 7 5 5 5 6 7 9 10 9 9 9
2 3 3 4 5 6 5 5 4 0 1 7 6 5 5 5 5 5 5 5 5 5 6 7 6 6 4 4 5 5 5 7 9 8 7 5 7 6 6 6 7 10 11 9
2 2 3 3 5 6 5 4 6 5 3 3 5 6 6 6 4 5 4 5 5 5 6 5 6 6 5 4 4 3 4 6 7 10 8 7 8 7 6 7 9 9 9 8
2 2 2 3 3 5 4 3 5 4 6 5 5 5 5 6 6 4 4 5 5 6 7 6 6 5 5 4 7 4 5 7 7 7 6 6 7 7 7 7 7 9 8 8
3 2 2 2 3 4 4 6 5 4 5 5 6 7 6 6 6 6 6 6 5 5 7 8 7 6 5 6 5 5 4 7 6 7 6 7 7 7 7 7 7 7 7 7
3 3 2 2 2 3 5 4 3 4 6 5 6 6 6 6 5 5 5 5 6 6 6 5 5 4 4 5 5 6 6 6 7 9 7 7 9 7 7 6 6 6 8 6
4 3 3 2 2 3 2 6 5 5 6 5 6 6 6 6 6 6 5 4 5 5 3 3 4 4 4 4 5 4 6 7 7 9 8 12 7 5 5 6 6 5 5 5
4 3 3 2 2 2 2 2 5 6 6 6 6 6 6 5 5 5 5 4 4 3 4 6 7 7 6 6 5 5 5 7 9 10 10 8 7 6 6 7 7 5 5 5
4 3 3 2 2 2 2 1 2 6 6 7 6 6 6 6 5 5 5 3 2 3 5 6 9 10 8 8 7 5 5 5 8 9 12 13 8 6 4 4 9 4 4 5
3 3 3 2 3 2 3 2 2 5 7 5 6 6 6 5 5 6 5 5 4 3 6 8 8 9 6 9 9 9 8 8 9 9 10 9 5 5 4 10 9 4 4 4
3 2 2 3 3 2 2 2 2 4 6 6 5 6 6 5 5 6 5 5 5 5 7 8 7 8 7 7 7 8 9 9 9 8 10 12 4 5 7 6 4 4 4 3
2 2 2 2 2 2 2 3 2 2 5 6 4 4 5 6 4 5 5 5 6 5 7 6 6 8 6 8 10 5 9 8 9 9 10 5 4 5 4 3 4 4 3 3
1 2 1 1 2 2 2 2 2 3 4 4 6 5 3 3 4 4 6 4 4 4 3 6 6 8 7 9 8 8 6 5 7 7 6 5 4 3 3 3 3 3 3 3
1 2 1 1 0 1 2 2 1 3 4 7 5 4 5 3 3 4 5 4 3 2 3 5 6 7 5 7 6 7 6 5 6 6 5 5 4 4 3 3 3 3 2 3
2 2 1 1 0 0 1 2 0 1 4 6 5 4 4 4 3 4 4 4 5 5 5 6 7 5 5 5 5 7 5 5 7 8 5 5 5 3 3 3 3 3 3 3
2 2 1 1 1 0 1 3 1 -1 1 4 6 3 4 3 3 4 4 3 4 4 5 5 4 4 5 7 7 4 4 4 4 5 4 4 3 3 2 3 3 2 2 2
2 2 2 2 1 1 3 4 2 2 1 4 6 5 3 3 3 3 4 4 5 5 4 6 6 5 5 7 8 4 4 3 3 3 3 4 3 4 3 3 2 2 2 2
1 2 2 2 1 2 3 1 2 2 3 3 6 5 5 2 4 5 2 4 4 5 5 4 5 5 5 8 6 5 4 4 4 4 4 4 3 3 3 3 3 3 3 2
1 2 2 1 2 3 2 1 2 1 2 6 5 7 7 3 3 3 3 3 6 3 5 6 5 6 7 5 4 4 4 4 3 3 2 2 3 3 3 2 2 3 2 2
1 1 3 4 3 1 1 2 3 3 3 4 6 4 6 4 4 4 4 4 6 7 6 2 5 6 4 3 3 3 3 3 3 4 4 4 4 3 3 3 2 2 2 2
2 3 4 0 2 2 4 6 6 5 6 4 5 4 5 3 6 5 3 5 4 8 6 6 7 7 5 3 3 3 3 3 3 2 2 2 2 3 3 3 2 2 2 2
1 0 -0 0 2 5 7 7 6 6 6 5 5 5 4 4 2 5 4 6 5 9 5 7 8 8 5 4 4 3 2 2 2 2 2 2 2 2 2 2 2 2 2 1
-1 1 4 4 4 10 10 11 8 7 5 4 4 6 4 4 3 4 5 9 8 4 7 7 6 6 5 4 3 3 2 2 2 2 2 2 2 2 2 2 2 2 2 2
3 6 11 8 9 8 6 6 5 4 3 4 5 4 5 5 6 5 9 5 5 9 10 9 7 6 5 4 4 3 3 3 3 3 2 2 2 2 2 2 2 2 2 2
6 6 10 7 5 4 3 4 4 4 3 5 6 5 5 6 7 5 7 9 11 9 9 8 6 5 4 4 4 4 4 3 3 3 3 3 2 2 2 2 2 2 2 2
4 5 7 5 5 5 4 4 5 2 4 4 4 7 7 8 8 9 10 10 10 10 8 6 5 5 5 4 4 4 3 3 3 3 3 3 3 3 3 2 2 2 2 2
6 6 3 4 4 5 4 4 4 1 3 6 5 9 9 5 9 10 7 10 9 7 6 5 5 5 5 4 4 4 4 4 3 3 3 3 2 2 2 3 2 2 2 2

GFSNW_con_lsi_006.txt.gz
Lid_Strength_Index
3 3 3 3 4 5 5 6 8 2 0 5 5 7 6 6 5 4 5 5 6 7 6 7 7 7 6 4 5 6 5 7 9 8 6 5 6 7 7 10 11 9 10 10
3 2 3 4 4 4 6 7 6 2 1 7 7 5 5 5 6 5 6 6 5 5 6 8 7 6 5 4 5 6 5 7 10 9 7 6 7 6 6 7 7 10 11 11
3 2 2 3 4 4 5 6 7 4 3 4 5 6 6 6 4 5 5 5 5 6 6 6 7 6 5 4 5 3 5 7 8 10 9 7 8 7 7 7 10 9 9 9
3 2 2 3 3 3 4 4 6 4 7 5 5 5 6 6 6 5 4 6 6 6 7 7 7 6 6 5 6 5 5 8 7 7 7 7 7 8 7 8 8 9 9 9
3 3 3 2 3 3 3 5 7 5 6 5 6 6 6 7 6 6 6 6 6 5 7 7 8 7 6 6 5 5 5 8 7 8 7 7 8 7 7 7 7 7 7 8
3 3 3 3 3 3 3 2 5 6 6 6 6 6 6 6 5 5 5 5 6 6 7 5 5 5 5 5 6 6 6 7 8 10 7 8 9 7 7 7 6 6 9 6
3 3 3 3 2 3 4 2 5 8 7 6 6 6 5 6 6 7 5 4 6 5 3 3 4 4 5 5 5 5 7 8 8 10 9 13 7 5 6 6 6 5 6 6
2 3 3 3 2 3 4 2 4 8 9 6 5 5 6 5 5 6 6 4 4 3 4 7 8 8 7 6 6 7 8 8 10 11 11 8 7 6 7 8 8 5 5 5
2 3 3 3 2 2 3 2 1 4 8 6 5 6 6 7 6 6 5 3 2 3 5 7 10 11 9 9 7 6 7 8 10 10 12 13 8 6 5 6 10 6 5 6
1 2 3 2 2 2 2 2 0 3 7 6 7 6 6 4 5 6 5 5 5 3 6 8 9 9 7 10 9 9 8 8 10 10 11 9 6 5 5 12 12 6 5 5
1 1 2 2 1 2 3 2 0 3 5 5 6 5 6 5 5 7 5 5 5 6 8 8 8 8 7 8 7 9 10 10 10 10 11 12 5 6 8 7 5 4 4 4
1 1 2 2 2 1 2 4 1 1 4 4 4 4 3 4 4 5 4 5 6 6 8 7 6 8 7 9 10 6 9 10 12 11 12 8 5 5 4 4 4 4 4 3
1 1 1 2 2 1 1 4 2 1 3 4 4 6 3 2 3 3 6 4 4 5 4 6 7 8 7 10 10 9 8 6 8 9 9 9 5 4 4 3 4 3 3 3
2 1 1 1 1 1 1 4 2 1 3 6 5 3 5 2 3 4 3 4 3 3 4 6 7 8 5 8 10 11 9 9 10 8 9 6 5 4 4 3 3 3 3 3
2 1 1 1 1 0 0 2 2 0 3 7 5 3 4 4 3 4 4 4 4 5 6 6 7 5 6 6 6 7 5 8 9 10 6 6 5 4 3 3 3 3 3 3
2 1 1 1 1 0 1 4 1 1 0 4 7 3 3 3 4 5 3 4 5 6 5 5 4 4 6 8 8 5 4 4 4 5 5 5 4 4 3 4 3 3 3 2
1 1 2 1 1 1 3 5 2 3 2 5 6 5 3 3 3 4 5 4 4 5 6 7 6 5 4 7 9 5 5 4 4 4 4 5 5 5 4 3 3 2 2 2
1 1 2 1 1 2 3 1 2 2 3 3 7 6 5 2 4 5 3 5 5 5 5 4 6 5 6 9 6 5 4 4 5 4 4 4 3 3 3 2 3 3 3 3
1 1 1 1 2 3 2 1 1 1 3 7 6 7 8 3 4 4 4 3 7 5 7 7 6 7 8 6 5 5 4 4 5 4 4 3 4 3 3 3 3 3 3 3
1 2 4 5 2 0 1 2 3 3 3 4 6 4 6 4 4 5 5 4 6 8 6 5 7 7 4 4 3 3 3 3 3 4 5 4 4 4 3 3 3 3 3 3
3 4 4 1 1 2 3 6 6 5 7 5 5 4 6 3 6 6 4 6 5 8 7 7 7 8 6 4 4 3 3 3 3 3 3 3 3 3 3 3 3 2 2 3
1 1 0 1 3 4 7 7 6 6 7 5 5 5 4 4 3 5 5 7 6 9 5 7 9 9 6 5 4 3 3 3 3 2 3 3 2 2 2 3 2 2 2 2
-0 3 5 5 6 10 9 11 8 7 5 5 4 6 4 4 4 5 6 8 8 5 7 8 10 7 5 5 4 4 3 3 3 3 2 2 2 2 2 3 2 2 2 2
5 7 11 8 9 7 7 6 6 4 4 4 4 5 6 5 6 6 8 6 6 9 10 11 8 6 5 4 4 4 4 3 3 3 3 3 3 3 2 2 2 2 2 2
5 6 11 8 5 4 4 3 4 3 3 4 5 5 5 6 7 6 7 9 10 9 11 8 6 5 5 5 4 4 4 4 4 3 4 3 3 3 3 2 2 3 3 3
5 5 7 5 6 5 4 4 4 3 4 3 4 6 8 8 7 9 9 9 11 10 8 5 5 5 4 4 4 4 3 4 3 4 3 3 3 3 3 3 3 2 3 3
5 5 4 4 4 5 4 4 4 2 4 6 7 9 9 5 8 9 7 10 9 6 6 4 4 4 4 3 4 3 3 4 3 3 4 4 3 3 3 4 3 2 2 2

GFSNW_con_lsi_009.txt.gz
Lid_Strength_Index
3 3 3 3 3 4 5 6 9 3 3 7 7 10 9 7 6 6 8 8 9 8 8 9 9 9 7 6 6 9 8 10 11 10 8 7 8 10 10 13 14 13 14 13
3 3 3 3 3 4 7 9 7 4 3 9 9 7 8 7 6 8 8 9 8 7 8 10 8 8 5 6 7 8 8 10 13 11 9 8 9 9 10 10 12 14 15 13
2 2 3 3 3 3 5 8 9 5 5 5 7 8 7 7 5 6 7 8 6 7 9 8 9 8 6 5 6 5 6 10 11 13 11 9 10 9 9 11 13 13 12 11
3 3 2 3 3 3 5 6 7 6 9 8 9 7 7 7 8 5 7 8 7 8 9 9 9 8 8 6 5 6 7 11 10 10 9 9 8 9 9 11 11 12 11 11
3 3 2 2 3 3 4 6 7 7 10 8 7 8 8 8 7 7 8 8 6 7 9 9 11 9 9 9 7 7 7 11 10 11 8 9 10 8 8 8 9 9 10 10
2 2 2 2 2 3 5 4 3 7 9 10 10 8 8 7 7 7 6 7 7 7 8 6 6 7 6 7 8 9 9 10 11 13 10 10 11 9 9 8 8 8 11 9
2 2 2 2 2 2 4 5 5 7 9 8 9 8 8 7 8 9 7 6 7 6 5 4 5 6 6 6 7 8 11 12 11 12 11 16 10 7 7 9 8 8 8 7
1 1 2 2 2 2 4 4 5 7 10 9 8 9 9 8 7 7 7 6 5 4 6 9 10 10 10 9 7 9 9 11 14 15 14 12 9 8 9 10 10 7 8 7
1 1 1 1 1 2 3 4 3 5 8 9 7 9 8 9 9 8 6 4 4 5 7 9 13 14 11 12 10 8 9 10 13 15 17 18 11 7 6 7 13 7 6 7
1 1 1 1 2 2 2 4 3 4 8 6 7 9 10 8 9 8 7 7 6 5 9 11 12 12 9 13 13 13 12 12 14 15 16 13 8 7 6 13 12 7 6 6
1 1 1 1 1 2 1 3 2 3 6 6 6 6 8 8 8 10 8 8 7 8 11 11 11 11 9 11 10 12 13 14 14 13 15 16 7 7 11 9 7 6 6 6
1 1 1 1 1 1 0 4 2 1 4 5 4 4 5 5 5 8 8 8 8 8 10 10 10 10 10 11 14 9 15 12 13 13 13 8 7 8 6 5 6 6 6 5
0 1 1 1 1 1 1 2 3 3 4 5 5 5 3 4 5 4 9 6 5 7 6 8 9 11 9 13 13 11 10 8 12 12 10 9 7 6 5 5 6 5 5 5
0 1 2 1 1 1 1 3 2 4 4 7 6 3 3 4 5 4 4 6 4 5 6 8 9 11 7 10 11 11 10 9 11 11 9 8 7 6 6 5 4 4 4 4
0 1 1 1 1 1 1 2 2 1 5 8 7 3 3 4 4 3 4 4 5 6 7 8 9 8 8 8 8 11 8 10 12 13 8 9 8 6 5 6 5 5 5 4
0 1 2 1 1 0 3 4 1 2 3 6 9 3 4 3 4 4 4 4 4 5 7 7 6 6 8 10 10 7 7 6 6 8 6 6 5 4 5 5 5 5 5 5
0 1 1 1 1 2 4 5 2 2 3 5 8 7 4 3 4 5 5 4 5 6 6 7 7 7 6 9 11 8 6 5 6 6 5 7 6 6 5 5 5 4 4 5
1 1 1 1 1 2 4 2 1 2 5 4 9 8 6 3 6 7 5 6 6 6 7 6 7 7 7 9 7 7 6 5 5 5 4 5 5 5 4 4 4 4 4 4
1 1 1 2 3 3 2 -0 -0 1 4 8 7 9 10 4 5 5 6 5 8 5 7 8 7 9 10 8 7 6 5 6 5 4 4 4 5 5 4 4 4 5 5 5
1 3 4 5 2 -1 0 2 4 5 4 5 8 5 8 5 6 7 7 6 8 9 8 7 8 10 7 6 5 5 5 4 4 6 6 6 6 5 5 4 4 4 4 4
3 4 5 2 -0 2 4 7 8 7 8 6 6 6 7 4 8 8 6 8 8 10 9 8 10 12 8 6 5 4 4 4 4 4 4 4 4 4 4 4 4 4 4 4
3 3 1 1 4 5 7 8 7 8 9 6 7 6 5 6 5 7 7 8 8 10 7 9 13 10 6 6 5 5 4 4 4 4 4 4 4 3 4 4 4 4 3 3
1 3 5 6 6 11 10 11 9 9 6 5 6 7 5 5 5 7 8 9 10 6 9 12 11 7 6 6 5 5 4 4 4 4 3 3 3 3 3 4 3 3 3 3
5 7 11 9 10 8 8 8 7 6 5 6 6 7 7 6 7 7 9 8 8 10 11 13 9 7 6 5 5 5 5 4 4 4 4 4 4 4 3 3 3 3 4 3
6 6 11 9 6 5 5 4 5 5 4 5 6 6 6 7 7 8 9 9 10 12 13 9 7 6 5 5 5 5 5 5 4 4 4 4 4 4 4 3 3 3 4 3
5 6 8 6 7 7 5 6 6 4 4 4 5 7 9 8 8 9 10 10 13 11 8 7 6 6 5 5 5 4 4 4 4 4 4 4 4 4 4 3 3 3 3 3
6 7 5 6 7 7 5 5 5 3 5 8 7 9 9 7 9 10 9 11 9 7 6 5 5 6 5 5 4 4 4 4 4 4 4 4 3 3 4 4 4 3 3 3

GFSNW_con_lsi_012.txt.gz
Lid_Strength_Index
5 5 5 5 5 5 7 10 13 6 4 10 11 13 12 10 10 8 9 9 10 11 10 11 11 11 9 7 7 10 10 13 13 11 9 8 10 10 12 14 15 14 15 14
5 4 4 5 5 4 6 12 10 6 7 13 12 10 9 8 9 8 9 10 9 9 11 12 10 9 7 7 7 8 9 13 14 13 12 11 11 11 11 13 14 15 15 13
4 4 4 4 4 4 5 10 11 8 8 9 10 11 10 9 6 7 7 9 9 10 11 10 11 10 7 7 6 5 6 13 13 14 13 12 13 11 11 12 14 14 13 12
4 3 3 3 3 3 5 9 9 9 12 11 11 11 9 9 9 6 6 8 9 9 12 10 10 9 8 7 6 6 9 13 12 12 10 10 10 10 11 13 12 12 13 11
3 3 2 2 3 3 7 9 9 8 11 11 11 11 10 9 9 8 8 9 8 8 10 10 11 10 11 10 8 10 11 13 12 12 10 10 11 10 9 10 10 10 10 10
2 2 3 3 3 4 8 8 7 9 11 11 11 11 10 10 9 7 7 8 8 8 8 8 8 8 9 8 10 10 11 11 13 14 11 10 12 11 10 9 8 9 11 9
1 1 2 2 2 2 3 5 6 10 12 11 10 11 10 9 8 9 7 7 8 6 6 7 8 8 9 8 9 9 11 12 13 13 13 15 12 8 7 9 9 8 8 8
0 0 0 1 1 1 5 4 6 9 13 10 9 10 10 10 9 8 7 7 6 6 8 10 11 11 10 10 9 9 9 11 14 14 14 13 10 9 9 9 10 8 8 7
0 0 0 1 1 1 3 4 4 7 11 12 7 10 9 12 13 9 8 7 7 7 10 10 14 14 12 12 11 9 9 9 12 14 15 16 12 9 7 7 13 7 7 8
-0 0 0 0 1 1 3 4 3 7 10 9 9 11 11 10 11 11 9 10 9 7 11 13 13 13 10 15 15 15 13 13 14 15 16 13 10 8 7 14 13 7 7 7
-0 -0 0 1 1 1 2 4 3 6 7 7 6 6 9 9 10 12 10 10 9 9 12 12 12 12 11 13 12 14 15 15 15 14 15 17 7 8 12 10 7 6 6 6
-0 -0 -0 0 1 1 1 5 3 3 6 6 4 4 5 6 7 10 12 12 9 8 10 10 11 12 11 12 16 11 14 12 14 14 14 9 7 8 7 6 7 6 6 6
-0 -0 -0 0 1 1 1 4 4 4 6 6 7 6 4 4 6 7 11 11 9 9 8 9 10 12 11 14 13 12 10 8 12 11 10 9 7 6 5 5 6 5 5 5
-0 -0 -0 0 1 1 1 5 4 5 7 9 8 4 6 4 6 6 8 8 9 9 9 11 11 12 8 12 11 12 10 9 11 11 9 8 7 6 6 5 6 5 5 5
-0 -0 -0 0 1 1 2 4 4 3 6 9 9 5 4 4 5 6 6 8 9 10 11 12 12 9 9 10 10 12 9 10 12 13 8 8 8 6 6 7 6 6 7 6
-0 -0 -0 0 1 1 4 5 4 3 5 9 11 6 6 6 5 5 7 7 8 9 10 10 10 10 10 11 12 9 8 7 7 8 6 6 5 5 6 7 6 6 6 7
-0 0 0 1 1 4 6 6 3 3 5 8 9 9 6 6 5 6 7 6 7 8 10 10 10 10 10 12 13 8 7 7 6 6 7 9 8 9 6 5 5 5 5 5
0 -0 0 1 1 2 6 3 3 3 6 7 10 9 8 6 8 8 7 8 8 8 9 10 10 9 10 12 10 10 8 7 7 6 7 7 7 6 6 6 5 5 6 6
0 1 1 4 5 6 5 -1 0 4 6 9 9 11 11 7 8 8 8 7 9 7 10 10 9 10 12 10 8 7 7 7 7 6 6 6 6 7 6 6 6 7 6 7
1 3 5 7 4 -1 0 5 6 7 7 8 10 8 10 9 9 9 8 8 10 10 9 9 10 11 8 7 6 6 5 5 5 6 7 7 7 6 6 7 6 6 7 6
5 5 5 3 -0 5 6 8 9 8 9 8 9 10 10 6 9 9 8 10 10 11 10 10 12 13 9 6 6 5 5 4 6 6 7 7 7 7 7 6 5 5 5 5
3 3 3 3 5 8 10 10 8 9 10 8 10 9 7 7 6 8 8 10 9 11 8 11 14 10 7 6 6 5 5 4 4 4 4 4 4 4 5 5 5 5 4 5
2 4 6 7 8 13 11 13 11 10 8 8 8 9 8 8 8 8 9 10 11 9 12 13 11 8 7 6 6 5 5 4 4 4 4 4 4 4 4 5 4 4 4 4
6 8 11 10 11 10 10 10 9 7 7 7 7 8 8 8 9 9 11 9 9 12 14 14 10 8 7 6 5 5 5 5 5 5 4 4 4 4 4 4 4 4 4 4
7 7 11 10 7 7 6 6 7 6 6 8 8 8 7 9 9 9 10 10 14 13 13 10 8 7 6 6 5 5 5 5 5 4 4 4 4 4 4 3 3 4 4 4
6 6 8 7 8 8 7 7 8 6 6 7 7 9 10 10 10 10 11 13 14 11 9 7 7 7 6 6 6 5 4 5 4 4 4 4 4 4 4 4 4 4 4 4
6 8 6 7 7 8 7 8 7 5 7 9 9 11 11 8 10 12 10 12 10 8 7 6 6 6 6 5 5 4 4 4 4 4 4 4 4 4 4 5 4 4 4 4

GFSNW_con_lsi_015.txt.gz
Lid_Strength_Index
6 6 6 6 6 7 7 12 17 9 8 12 14 15 12 9 10 10 10 10 11 12 11 12 13 12 10 7 8 12 11 12 13 12 10 10 11 12 12 14 16 16 15 14
6 6 6 6 6 6 8 12 13 8 9 15 13 11 9 9 10 10 10 11 10 10 12 13 12 11 8 7 8 10 11 14 15 14 13 12 12 11 13 14 14 14 15 13
5 5 5 5 5 5 7 11 14 11 10 11 12 12 10 9 6 8 9 10 9 10 12 11 12 11 8 6 8 5 7 14 12 13 13 12 12 11 11 12 15 15 14 12
4 3 4 4 4 5 6 10 11 11 13 11 11 12 10 9 10 8 8 10 8 8 12 12 11 9 8 7 6 7 10 13 13 10 10 11 11 10 11 12 12 12 12 11
3 2 3 3 3 4 7 10 10 8 10 11 11 11 11 10 10 10 9 10 8 8 10 9 10 9 10 10 9 12 12 13 12 13 11 10 11 11 10 10 12 12 12 11
1 0 1 1 2 4 9 8 8 8 9 11 11 11 10 10 9 9 9 8 9 9 8 7 7 8 8 9 10 11 13 12 15 13 12 12 13 12 11 11 10 10 12 10
0 0 0 0 1 2 5 6 6 9 11 10 10 10 9 10 9 11 9 7 9 7 7 6 8 9 9 8 9 10 12 13 14 13 13 15 12 9 9 9 9 8 9 9
-0 -0 0 0 0 1 5 5 6 7 10 9 9 9 10 9 10 10 8 7 8 8 9 10 10 11 11 10 9 10 10 14 14 14 14 12 11 10 10 11 11 8 9 8
-1 -1 -0 0 0 0 3 5 4 6 8 9 8 9 9 10 12 11 8 7 8 8 11 11 14 14 12 13 11 9 10 12 12 14 15 15 11 9 7 8 13 7 7 8
-1 -1 -1 -0 0 0 3 5 2 5 8 6 8 10 11 9 9 12 10 10 9 7 12 13 14 14 10 15 15 15 14 14 15 15 16 14 9 8 7 13 13 8 7 8
-1 -1 -1 -1 -0 0 3 5 3 4 6 7 6 6 8 9 9 12 10 11 9 10 13 13 13 13 12 14 13 15 15 16 16 15 16 17 8 8 11 9 7 8 7 7
-1 -1 -0 -1 -0 0 2 5 3 2 6 7 5 5 5 5 6 10 11 12 10 9 11 11 11 13 12 14 16 10 14 12 14 14 14 9 8 9 7 7 8 7 7 7
-1 -0 -0 -0 -0 0 1 4 5 4 6 7 7 7 5 4 5 5 11 11 9 9 7 10 10 13 11 15 14 12 10 9 12 12 10 9 8 7 6 6 7 7 6 6
-0 -0 -0 -0 -0 0 1 4 5 6 6 8 7 4 5 4 6 6 6 9 9 8 8 10 10 12 10 12 11 12 10 9 11 12 9 8 7 6 6 6 5 6 6 6
-0 -0 -0 -0 -0 0 2 5 5 3 5 9 8 6 4 5 6 7 6 8 9 9 10 10 11 9 9 10 10 12 9 11 12 13 9 8 8 6 6 7 7 7 7 7
-1 -1 -0 -0 -0 1 6 5 5 3 4 9 11 7 6 7 6 6 8 8 9 8 10 10 10 9 9 12 13 9 8 7 7 9 6 6 6 7 6 7 7 7 7 7
-0 -0 -0 -0 0 4 8 7 4 2 4 8 9 9 7 6 6 6 8 8 9 9 10 11 11 11 11 12 13 11 10 7 6 6 8 9 8 8 7 7 6 6 7 7
-0 0 -0 0 1 3 5 3 2 3 6 8 11 10 9 7 8 8 7 9 9 9 10 10 11 8 9 12 9 9 9 9 9 9 8 8 7 8 8 8 7 7 8 8
0 0 0 4 5 7 4 0 1 5 6 9 9 11 11 8 9 8 7 8 10 8 11 10 8 10 12 10 9 9 8 9 9 9 8 7 8 7 7 7 7 8 7 7
1 4 6 7 4 -1 2 5 7 7 7 8 10 8 11 9 9 9 9 9 10 11 12 7 10 11 7 8 8 7 7 7 7 7 8 7 7 7 7 7 6 7 7 7
5 5 6 3 1 6 7 9 9 8 9 8 9 9 11 8 9 9 9 10 10 11 12 11 12 12 9 7 6 6 6 5 6 6 6 7 7 6 6 6 6 6 7 6
3 3 3 4 6 9 10 11 9 9 10 9 9 9 9 8 7 8 8 10 10 12 8 12 14 10 8 7 6 6 6 5 5 4 5 5 4 4 5 5 5 5 5 4
2 5 7 8 9 14 12 13 11 11 9 9 9 9 9 8 8 9 9 10 11 8 12 13 11 8 6 7 6 6 5 4 4 5 4 4 4 4 4 4 4 4 5 4
6 8 11 11 11 10 10 10 10 7 7 8 8 8 8 8 9 9 10 10 9 13 15 14 10 8 7 7 6 6 6 6 5 5 4 4 4 4 4 4 4 4 5 4
8 7 12 10 7 7 7 6 7 6 6 8 8 8 8 9 10 9 10 12 14 13 13 10 8 8 8 8 6 6 6 5 5 5 5 4 4 4 5 4 4 4 5 5
6 7 9 7 8 8 7 7 7 6 7 7 8 9 10 10 10 11 13 13 14 12 10 8 7 7 6 6 6 6 5 5 5 5 5 4 4 5 4 4 4 4 5 5
7 8 6 7 7 8 8 8 7 6 7 10 9 11 12 9 11 13 11 12 10 8 7 7 7 7 6 6 5 4 4 5 5 5 5 5 4 4 5 5 5 5 5 5